TimeMST,TemperatureF,Dew PointF,Humidity,Sea Level PressureIn,VisibilityMPH,Wind Direction,Wind SpeedMPH,Gust SpeedMPH,PrecipitationIn,Events,Conditions,WindDirDegrees,DateUTC
12:53 AM,12.0,8.1,84,29.97,10.0,WNW,8.1,-,N/A,,Clear,300,2013-02-26 07:53:00
1:53 AM,7.0,3.0,84,30.00,10.0,Calm,Calm,-,N/A,,Clear,0,2013-02-26 08:53:00
2:53 AM,10.0,5.0,80,29.95,10.0,West,5.8,-,N/A,,Clear,280,2013-02-26 09:53:00
3:53 AM,8.1,3.9,83,29.94,10.0,WNW,5.8,-,N/A,,Clear,300,2013-02-26 10:53:00
4:53 AM,6.1,1.9,83,29.94,10.0,WNW,5.8,-,N/A,,Clear,300,2013-02-26 11:53:00
5:53 AM,6.1,1.0,80,29.97,10.0,WNW,5.8,-,N/A,,Clear,300,2013-02-26 12:53:00
6:53 AM,9.0,3.0,77,29.95,10.0,WNW,8.1,-,N/A,,Clear,300,2013-02-26 13:53:00
7:53 AM,14.0,6.1,71,29.94,10.0,WNW,10.4,-,N/A,,Clear,290,2013-02-26 14:53:00
8:53 AM,19.9,10.0,65,29.94,10.0,NNW,3.5,-,N/A,,Clear,340,2013-02-26 15:53:00
9:53 AM,24.1,14.0,65,29.94,10.0,NNW,8.1,-,N/A,,Clear,330,2013-02-26 16:53:00
10:53 AM,28.9,16.0,58,29.94,10.0,North,6.9,-,N/A,,Clear,10,2013-02-26 17:53:00
11:53 AM,30.9,18.0,59,29.93,10.0,Calm,Calm,-,N/A,,Clear,0,2013-02-26 18:53:00
12:53 PM,35.1,19.0,52,29.90,10.0,Variable,3.5,-,N/A,,Clear,0,2013-02-26 19:53:00
1:53 PM,36.0,21.9,57,29.91,10.0,North,6.9,-,N/A,,Clear,360,2013-02-26 20:53:00
2:53 PM,37.0,21.0,52,29.92,10.0,North,10.4,-,N/A,,Clear,360,2013-02-26 21:53:00
3:53 PM,34.0,19.9,56,29.96,10.0,North,6.9,-,N/A,,Clear,10,2013-02-26 22:53:00
4:53 PM,30.0,17.1,59,29.99,10.0,NNE,3.5,-,N/A,,Clear,30,2013-02-26 23:53:00
5:53 PM,26.1,17.1,69,30.02,10.0,WNW,5.8,-,N/A,,Clear,290,2013-02-27 00:53:00
6:53 PM,25.0,19.9,81,30.05,10.0,NW,5.8,-,N/A,,Clear,320,2013-02-27 01:53:00
7:53 PM,24.1,17.1,75,30.06,10.0,WNW,9.2,-,N/A,,Clear,300,2013-02-27 02:53:00
8:53 PM,24.1,15.1,69,30.07,10.0,NW,11.5,-,N/A,,Clear,310,2013-02-27 03:53:00
9:53 PM,26.1,17.1,69,30.08,10.0,NNW,12.7,-,N/A,,Mostly Cloudy,330,2013-02-27 04:53:00
10:53 PM,26.1,18.0,71,30.09,10.0,NW,10.4,-,N/A,,Clear,320,2013-02-27 05:53:00
11:53 PM,28.0,21.0,75,30.09,10.0,NNW,15.0,-,N/A,,Mostly Cloudy,330,2013-02-27 06:53:00